Dewpoint
56 56 56 57 57 57 57 57 58 58 59 59 59 60 60 60 59 54 34 40 49 68 63 37 42 44 45 44 51 56 48 33 37 37 38 44 49 53 57 58 60 62 63 66 68
55 56 56 56 57 57 57 57 57 58 58 59 59 60 60 59 48 34 51 67 66 69 32 31 36 28 28 36 38 42 28 28 37 40 41 44 50 52 58 59 61 62 64 66 67
55 55 55 55 56 56 57 57 57 57 58 58 59 61 60 59 48 30 68 67 68 62 31 31 37 29 21 29 28 23 21 22 34 42 43 45 49 52 56 58 61 61 62 65 66
54 54 55 55 55 55 55 56 56 57 57 58 59 61 60 54 34 34 66 68 69 39 34 35 32 21 30 33 28 21 22 25 37 40 41 42 45 48 52 58 59 62 62 63 63
54 54 54 55 55 55 55 55 56 57 57 58 59 60 56 39 32 47 67 63 36 25 32 32 26 21 35 29 26 23 25 23 36 38 40 44 46 49 52 54 59 60 61 61 63
54 54 55 54 55 55 56 56 56 58 58 58 59 59 48 39 39 49 40 32 18 21 25 27 20 20 34 31 27 28 24 22 30 37 43 44 46 49 52 54 58 60 60 62 62
54 54 55 54 54 55 55 55 55 58 59 58 59 54 44 30 37 41 28 17 17 23 23 20 19 33 35 34 27 27 24 25 30 43 43 44 45 47 51 53 53 54 59 60 61
54 54 54 54 54 54 55 54 55 59 59 58 59 51 41 37 35 32 22 19 18 22 20 18 21 31 32 34 29 21 22 20 32 43 44 43 44 47 50 51 52 53 58 59 59
54 54 53 53 54 53 53 53 55 59 59 59 54 49 41 45 32 36 28 21 18 19 17 16 28 27 30 29 28 25 20 21 24 41 44 43 43 47 49 50 50 50 53 56 57
53 53 53 53 53 53 53 54 56 57 56 52 46 43 41 31 29 30 35 27 16 15 16 20 24 26 26 25 24 25 21 20 20 36 38 43 43 45 48 49 50 50 51 53 56
53 53 53 52 52 52 49 46 50 48 48 33 30 38 28 30 29 26 32 27 19 16 14 18 18 19 24 23 24 23 24 21 20 20 31 41 43 43 46 48 49 50 51 52 53
53 53 52 52 52 51 49 42 43 34 31 42 33 32 29 27 24 28 28 23 20 15 15 16 16 18 21 19 18 21 23 21 20 19 33 38 41 43 44 47 48 49 51 51 52
52 52 52 52 50 50 43 39 40 36 30 29 31 40 35 25 27 27 23 20 19 16 13 13 15 15 13 15 24 20 23 23 19 19 20 33 35 40 43 45 48 50 51 52 52
52 52 51 50 44 35 31 29 35 32 31 30 26 28 33 29 28 28 23 19 17 14 14 12 12 12 13 20 19 21 23 22 18 18 15 20 31 36 36 43 46 49 50 51 52
52 52 51 50 42 38 32 33 29 29 28 24 22 30 26 22 27 27 24 18 15 14 15 14 11 10 16 21 21 21 25 24 24 21 35 21 23 34 35 37 44 48 50 51 53
51 51 51 43 42 42 37 28 28 30 28 18 19 26 21 14 22 25 19 19 16 16 16 12 13 13 19 23 23 24 27 24 19 17 17 19 21 34 35 36 41 47 49 50 52
51 50 49 43 35 30 33 29 27 27 25 19 23 23 18 15 17 24 17 15 13 17 24 16 14 15 23 23 23 21 29 23 22 19 20 21 22 31 35 38 37 42 48 49 52
50 49 47 41 40 39 34 28 28 23 24 18 22 21 19 17 17 22 20 15 15 17 23 22 18 19 22 22 23 23 19 23 23 22 22 23 24 34 37 38 37 38 41 47 50
50 40 35 36 40 35 34 22 25 26 20 19 20 20 18 16 16 20 22 19 16 17 22 21 22 22 22 21 21 25 19 22 17 19 23 26 34 36 36 34 35 33 36 44 49
44 39 34 32 33 37 31 26 21 21 20 19 18 22 21 16 14 19 20 24 21 19 21 25 26 22 21 19 19 23 25 24 23 25 24 27 32 34 33 33 39 38 40 42 47
43 37 36 33 32 33 21 20 19 18 18 19 17 19 22 19 16 17 18 24 24 20 21 21 24 23 23 18 18 19 23 26 24 27 24 30 31 42 41 41 40 39 44 49 51
36 32 33 32 28 28 24 18 23 14 15 15 17 18 18 23 17 16 17 22 24 24 21 22 23 24 24 23 20 20 19 26 28 26 29 31 32 30 30 29 32 41 43 44 58
36 29 31 29 23 24 25 21 19 12 13 13 13 16 18 22 32 34 19 19 22 23 23 25 22 20 21 22 20 18 21 26 29 30 28 31 30 34 34 36 37 38 43 50 61
37 28 29 34 31 26 25 24 20 14 11 12 13 15 16 22 31 33 29 25 19 20 47 40 26 25 19 26 24 23 22 21 21 25 28 28 31 34 39 37 38 44 46 47 62
37 28 27 25 27 27 27 27 24 19 13 14 15 14 14 21 31 30 29 28 23 36 42 25 28 29 23 21 20 23 21 19 19 28 25 26 31 41 43 44 46 46 48 51 65
36 34 33 32 31 32 32 29 24 23 22 15 15 13 15 18 34 32 30 33 35 33 29 24 30 29 31 24 19 17 23 22 19 22 26 34 37 41 45 44 45 46 48 58 66
40 40 38 36 31 29 30 31 25 24 23 23 18 14 15 16 22 27 23 25 29 35 32 28 33 33 26 28 26 24 24 25 22 24 23 30 41 42 43 46 45 46 49 63 64
Lifted_Index
16 16 15 15 15 15 14 13 12 11 11 11 11 11 11 11 10 8 7 7 7 7 6 4 2 2 1 -0 -1 -2 -2 -1 -1 -0 0 0 -1 -1 -1 -1 -1 -1 -1 -1 -1
16 16 16 16 16 15 15 14 13 11 11 11 11 11 11 11 9 7 7 7 7 7 6 3 2 2 1 -0 -1 -2 -1 -1 -1 -0 0 0 -0 -1 -1 -2 -2 -1 -1 -1 -1
17 17 17 16 16 16 15 14 13 12 12 12 12 12 12 10 8 7 7 7 8 7 6 4 2 2 1 -0 -1 -1 -1 -0 -1 -1 -0 0 0 -1 -1 -2 -2 -1 -1 -1 -1
18 18 17 17 17 16 15 15 14 13 12 12 12 12 11 10 8 7 7 8 8 8 6 4 3 2 1 -0 -1 -1 -0 -0 -1 -1 -0 0 0 -0 -1 -1 -1 -1 -1 -1 -1
18 18 18 18 17 16 16 15 14 13 13 13 12 12 11 9 7 7 8 8 8 7 6 4 4 3 1 -0 -0 -1 -0 -0 -0 -1 0 0 0 -0 -1 -1 -1 -1 -1 -1 -1
18 18 18 18 17 17 16 14 13 13 13 13 12 11 9 8 7 7 7 8 8 7 6 5 5 4 2 0 0 -0 -0 0 0 -0 -0 0 -0 -0 -1 -1 -1 -1 -1 -1 -1
18 18 18 18 17 17 16 14 13 13 13 13 12 11 9 7 7 7 7 8 8 7 6 6 6 5 3 2 1 1 -0 0 0 -0 -0 -0 -0 -0 -1 -1 -1 -1 -1 -1 -1
18 18 18 18 18 17 15 13 12 12 12 12 12 10 8 7 7 7 7 8 8 8 7 7 6 5 4 3 2 1 -0 -0 -0 -0 -0 -0 -0 -0 -1 -1 -0 -0 -1 -1 -1
18 18 18 18 18 17 15 13 11 11 12 12 11 9 7 7 7 7 7 7 8 8 7 7 6 4 3 2 1 0 -0 -1 -0 -0 -0 -0 -0 -1 -1 -1 -0 0 0 -0 -1
18 18 18 18 17 17 15 12 10 10 10 10 9 8 7 7 7 7 7 8 8 8 7 6 5 4 3 2 1 -0 -0 -1 -0 0 -0 -1 -1 -1 -1 -1 -0 0 0 0 -0
18 18 18 18 17 16 15 12 9 8 8 9 8 8 8 7 8 8 7 8 8 7 6 5 4 3 2 1 0 -0 -0 -1 -0 0 -0 -1 -1 -1 -1 -1 -0 -0 0 0 0
18 18 18 17 17 16 14 11 8 8 8 8 8 8 8 8 8 8 8 8 7 5 5 4 3 3 3 1 0 -0 -0 -1 -0 -0 -0 -1 -1 -1 -0 -0 -0 -0 -0 -0 -0
17 17 17 16 15 14 12 11 10 9 8 7 7 7 7 7 7 7 8 7 6 5 5 4 3 3 3 1 0 -0 -0 -1 -1 -0 -1 -0 -1 -1 -0 -0 -0 -0 -0 -0 -0
16 16 16 16 14 12 11 11 10 9 7 6 6 7 7 7 7 7 7 7 6 5 5 4 4 3 2 1 1 0 -0 -1 -1 -1 -1 -0 -0 -0 -0 -0 -0 -0 -0 -0 -1
16 16 16 15 14 12 11 11 10 8 5 4 5 6 7 7 6 6 7 7 6 5 5 4 4 3 2 1 1 0 -0 -0 -0 -1 -1 -1 -1 -0 0 0 -0 -1 -0 -0 -0
16 16 15 15 14 13 12 11 9 7 4 4 5 6 6 6 6 6 6 6 5 5 5 4 3 3 2 2 1 0 -0 -0 -0 -0 -0 -1 -1 -0 0 0 -0 -1 -1 -0 -0
17 16 15 14 13 13 12 10 8 6 4 4 5 6 6 5 5 6 6 6 5 5 4 4 3 3 2 2 2 1 0 0 -0 -0 -0 -1 -1 -0 0 1 0 -0 -1 -1 -1
17 16 14 13 13 13 11 9 6 5 4 4 4 4 5 5 5 5 5 5 5 4 4 3 3 3 3 3 2 1 1 0 -0 -0 -1 -1 -1 -0 0 1 1 0 -0 -1 -2
18 16 14 12 12 12 10 8 6 6 4 3 2 2 3 4 4 5 5 5 5 4 4 3 3 2 2 2 2 2 1 1 0 -0 -1 -1 -0 0 1 1 1 1 0 -1 -2
17 16 13 12 11 11 9 7 7 7 4 3 1 1 1 2 3 4 4 4 4 4 4 3 2 1 1 2 2 1 1 1 0 -0 -1 -1 -0 0 1 2 2 2 1 -0 -1
16 14 12 11 11 10 8 8 8 7 5 4 3 2 1 1 2 3 3 3 4 4 3 2 2 1 0 1 1 1 1 1 0 0 -0 -0 -0 1 1 2 2 1 1 -0 -1
15 13 10 9 10 10 9 9 9 7 6 5 4 3 1 1 1 1 2 2 2 3 3 2 1 0 -0 0 1 1 1 1 0 0 -0 -0 0 1 2 2 2 2 1 -0 -1
14 12 10 9 9 10 10 10 9 8 6 5 5 4 2 1 1 0 0 0 1 1 2 2 1 0 -0 -0 -0 0 0 0 0 0 0 -0 0 1 2 3 3 2 1 0 -1
12 10 8 8 8 9 9 9 9 8 6 5 5 4 3 2 1 1 0 -0 -0 -0 0 1 1 1 0 -0 -0 -0 -0 -0 0 0 -0 -0 0 1 2 3 3 2 1 0 -1
9 8 7 7 8 8 9 9 9 8 7 5 5 4 3 2 2 1 1 0 -0 -0 -0 -0 0 0 0 0 0 -0 -0 -0 -0 -0 -0 -0 0 1 2 2 2 2 1 -1 -3
7 6 6 7 8 9 9 9 8 8 7 6 5 4 4 3 3 2 1 1 0 -0 -0 -0 -0 -0 -0 0 0 -0 -0 -1 -0 -0 -0 -0 0 1 1 1 2 1 -0 -2 -4
6 6 6 7 8 9 9 8 8 8 7 6 5 4 4 4 3 2 2 1 1 0 -0 -1 -1 -1 -0 0 0 0 -0 -1 -1 -1 -0 -0 0 1 1 1 1 1 -1 -3 -4